Rensselaer, IN

10:01 PM CST on December 04, 2016 (GMT -0600)
Jasper County

Weather History for KRZL - May, 2014

Change the Weather History Date:

Tuesday, May 27, 2014

  Actual Average (KVPZ) Record (KVPZ)
Temperature  
Mean Temperature 74 °F 63 °F  
Max Temperature 82 °F 74 °F 97 °F (2012)
Min Temperature 66 °F 52 °F 42 °F (2008)
Degree Days  
Heating Degree Days 0 4  
Month to date heating degree days 204  
Since 1 July heating degree days 6263  
Cooling Degree Days 9 2  
Month to date cooling degree days 32  
Year to date cooling degree days 37  
Growing Degree Days 24 (Base 50)    
Moisture  
Dew Point 66 °F    
Average Humidity 77    
Maximum Humidity 100    
Minimum Humidity 51    
Precipitation  
Precipitation 0.00 in 0.10 in 0.50 in (2013)
Month to date precipitation 3.39  
Year to date precipitation 12.57  
Sea Level Pressure  
Sea Level Pressure 29.96 in    
Wind  
Wind Speed 8 mph (WSW)    
Max Wind Speed 16 mph    
Max Gust Speed 21 mph    
Visibility 10 miles    
Events Rain    
T = Trace of Precipitation, MM = Missing Value Source: NWS Daily Summary

Daily Weather History Graph

Daily Weather History Graph

Search for Another Location

Airport or City:

Trip Planner

Search our weather history database for the weather conditions in past years. The results will help you decide how hot, cold, wet, or windy it might be!

Date:

Astronomy

May. 27, 2014 Rise Set
Actual Time 5:21 AM CDT 8:10 PM CDT
Civil Twilight 4:49 AM CDT 8:43 PM CDT
Nautical Twilight 4:08 AM CDT 9:23 PM CDT
Astronomical Twilight 3:21 AM CDT 10:11 PM CDT
Moon 4:44 AM CDT (5/27) 7:11 PM CDT (5/27)
Length of Visible Light 15h 53m
Length of Day
14h 48m
Waning Crescent, 1% of the Moon is Illuminated
May 27
Waning Crescent
May 28
New
Jun 5
First Quarter
Jun 12
Full
Jun 19
Last Quarter

Hourly Weather History & Observations

Time (CDT) Temp. Heat Index Dew Point Humidity Pressure Visibility Wind Dir Wind Speed Gust Speed Precip Events Conditions
12:35 AM 68.0 °F - 68.0 °F 100% 30.00 in 10.0 mi SSE 4.6 mph - N/A   Clear
12:55 AM 68.0 °F - 68.0 °F 100% 29.99 in 10.0 mi South 8.1 mph - N/A   Clear
1:15 AM 68.0 °F - 68.0 °F 100% 29.99 in 10.0 mi South 8.1 mph - N/A   Scattered Clouds
1:35 AM 68.0 °F - 68.0 °F 100% 29.99 in 10.0 mi South 6.9 mph - N/A Rain Light Rain
1:55 AM 68.0 °F - 68.0 °F 100% 29.99 in 10.0 mi South 5.8 mph - N/A   Mostly Cloudy
2:15 AM 68.0 °F - 68.0 °F 100% 29.98 in 10.0 mi South 6.9 mph - N/A   Mostly Cloudy
2:35 AM 68.0 °F - 68.0 °F 100% 29.98 in 10.0 mi SSW 8.1 mph - N/A   Scattered Clouds
2:55 AM 68.0 °F - 66.2 °F 94% 29.97 in 10.0 mi SSW 6.9 mph - N/A   Clear
3:15 AM 68.0 °F - 66.2 °F 94% 29.97 in 10.0 mi SSW 5.8 mph - N/A   Clear
3:35 AM 68.0 °F - 66.2 °F 94% 29.97 in 10.0 mi SSW 4.6 mph - N/A   Clear
3:55 AM 68.0 °F - 66.2 °F 94% 29.97 in 10.0 mi SW 4.6 mph - N/A   Clear
4:15 AM 68.0 °F - 66.2 °F 94% 29.97 in 10.0 mi SW 4.6 mph - N/A   Clear
4:35 AM 68.0 °F - 66.2 °F 94% 29.97 in 10.0 mi SW 5.8 mph - N/A   Clear
4:55 AM 68.0 °F - 66.2 °F 94% 29.97 in 10.0 mi SSW 8.1 mph - N/A   Clear
5:15 AM 68.0 °F - 66.2 °F 94% 29.97 in 10.0 mi SSW 5.8 mph - N/A   Clear
5:35 AM 66.2 °F - 66.2 °F 100% 29.97 in 10.0 mi SSW 5.8 mph - N/A   Clear
5:55 AM 68.0 °F - 66.2 °F 94% 29.98 in 10.0 mi SSW 5.8 mph - N/A   Clear
6:15 AM 68.0 °F - 66.2 °F 94% 29.98 in 10.0 mi SSW 9.2 mph - N/A   Clear
6:35 AM 68.0 °F - 66.2 °F 94% 29.98 in 10.0 mi SW 8.1 mph - N/A   Clear
6:55 AM 68.0 °F - 66.2 °F 94% 29.98 in 10.0 mi West 6.9 mph - N/A   Clear
7:15 AM 69.8 °F - 68.0 °F 94% 29.98 in 10.0 mi SW 6.9 mph - N/A   Mostly Cloudy
7:35 AM 69.8 °F - 68.0 °F 94% 29.98 in 10.0 mi SSW 10.4 mph - N/A   Scattered Clouds
7:55 AM 71.6 °F - 68.0 °F 88% 29.99 in 10.0 mi SSW 13.8 mph 18.4 mph N/A   Clear
8:15 AM 73.4 °F - 68.0 °F 83% 29.99 in 10.0 mi SW 10.4 mph - N/A   Clear
8:35 AM 71.6 °F - 66.2 °F 83% 29.99 in 10.0 mi SW 13.8 mph 17.3 mph N/A   Scattered Clouds
8:55 AM 71.6 °F - 68.0 °F 88% 29.99 in 10.0 mi SW 10.4 mph - N/A   Scattered Clouds
9:15 AM 71.6 °F - 68.0 °F 88% 29.99 in 10.0 mi SW 9.2 mph - N/A   Scattered Clouds
9:35 AM 71.6 °F - 68.0 °F 88% 29.99 in 10.0 mi SW 9.2 mph - N/A   Scattered Clouds
9:55 AM 73.4 °F - 68.0 °F 83% 29.99 in 10.0 mi SW 9.2 mph - N/A   Scattered Clouds
10:15 AM 73.4 °F - 68.0 °F 83% 29.99 in 10.0 mi SW 9.2 mph - N/A   Clear
10:35 AM 77.0 °F - 69.8 °F 78% 29.99 in 10.0 mi SW 11.5 mph - N/A   Clear
10:55 AM 77.0 °F - 68.0 °F 74% 29.99 in 10.0 mi WSW 11.5 mph - N/A   Clear
11:15 AM 78.8 °F - 69.8 °F 74% 29.99 in 10.0 mi WSW 11.5 mph - N/A   Clear
11:35 AM 78.8 °F - 68.0 °F 69% 29.99 in 10.0 mi WSW 12.7 mph 18.4 mph N/A   Clear
11:55 AM 80.6 °F 83.2 °F 68.0 °F 65% 29.98 in 10.0 mi SW 13.8 mph - N/A   Clear
12:15 PM 80.6 °F 82.3 °F 64.4 °F 58% 29.97 in 10.0 mi SW 13.8 mph - N/A   Clear
12:35 PM 80.6 °F 81.8 °F 62.6 °F 54% 29.97 in 10.0 mi WSW 12.7 mph 16.1 mph N/A   Clear
12:55 PM 80.6 °F 82.3 °F 64.4 °F 58% 29.96 in 10.0 mi West 11.5 mph - N/A   Clear
1:15 PM 82.4 °F 83.4 °F 62.6 °F 51% 29.96 in 10.0 mi WSW 11.5 mph 20.7 mph N/A   Scattered Clouds
1:35 PM 82.4 °F 83.4 °F 62.6 °F 51% 29.96 in 10.0 mi West 10.4 mph - N/A   Scattered Clouds
1:55 PM 82.4 °F 83.9 °F 64.4 °F 54% 29.95 in 10.0 mi WSW 10.4 mph 17.3 mph N/A   Clear
2:15 PM 82.4 °F 83.4 °F 62.6 °F 51% 29.95 in 10.0 mi WSW 11.5 mph - N/A   Scattered Clouds
2:55 PM 82.4 °F 83.4 °F 62.6 °F 51% 29.94 in 10.0 mi West 11.5 mph - N/A   Clear
3:15 PM 82.4 °F 83.4 °F 62.6 °F 51% 29.93 in 10.0 mi West 16.1 mph - N/A   Scattered Clouds
3:35 PM 82.4 °F 83.9 °F 64.4 °F 54% 29.92 in 10.0 mi West 12.7 mph - N/A   Scattered Clouds
3:55 PM 82.4 °F 83.9 °F 64.4 °F 54% 29.91 in 10.0 mi West 9.2 mph - N/A   Clear
4:15 PM 82.4 °F 83.9 °F 64.4 °F 54% 29.91 in 10.0 mi West 11.5 mph 17.3 mph N/A   Clear
4:35 PM 82.4 °F 83.4 °F 62.6 °F 51% 29.91 in 10.0 mi West 6.9 mph - N/A   Clear
4:55 PM 82.4 °F 83.9 °F 64.4 °F 54% 29.90 in 10.0 mi West 10.4 mph - N/A   Clear
5:15 PM 82.4 °F 83.4 °F 62.6 °F 51% 29.90 in 10.0 mi West 9.2 mph - N/A   Clear
5:35 PM 82.4 °F 83.4 °F 62.6 °F 51% 29.90 in 10.0 mi West 9.2 mph - N/A   Clear
6:15 PM 82.4 °F 83.4 °F 62.6 °F 51% 29.89 in 10.0 mi West 10.4 mph - N/A   Clear
6:35 PM 82.4 °F 83.4 °F 62.6 °F 51% 29.91 in 10.0 mi West 9.2 mph - N/A   Clear
6:55 PM 80.6 °F 81.8 °F 62.6 °F 54% 29.91 in 10.0 mi West 5.8 mph - N/A   Clear
7:15 PM 80.6 °F 81.8 °F 62.6 °F 54% 29.91 in 10.0 mi West 3.5 mph - N/A   Clear
7:35 PM 80.6 °F 82.3 °F 64.4 °F 58% 29.91 in 10.0 mi Calm Calm - N/A   Clear
7:55 PM 78.8 °F - 64.4 °F 61% 29.91 in 10.0 mi Calm Calm - N/A   Clear
8:15 PM 77.0 °F - 66.2 °F 69% 29.91 in 10.0 mi Calm Calm - N/A   Mostly Cloudy
8:35 PM 77.0 °F - 66.2 °F 69% 29.92 in 10.0 mi Calm Calm - N/A   Overcast
8:55 PM 75.2 °F - 68.0 °F 78% 29.93 in 10.0 mi North 12.7 mph - N/A   Mostly Cloudy
9:15 PM 71.6 °F - 64.4 °F 78% 29.95 in 10.0 mi North 8.1 mph 11.5 mph N/A   Scattered Clouds
9:35 PM 69.8 °F - 64.4 °F 83% 29.95 in 10.0 mi North 10.4 mph - N/A   Mostly Cloudy
9:55 PM 69.8 °F - 64.4 °F 83% 29.95 in 10.0 mi NNE 9.2 mph - N/A Rain Rain
10:15 PM 68.0 °F - 64.4 °F 88% 29.95 in 10.0 mi North 6.9 mph - N/A Rain Light Rain
10:35 PM 68.0 °F - 64.4 °F 88% 29.95 in 10.0 mi NE 4.6 mph - N/A   Mostly Cloudy
10:55 PM 68.0 °F - 64.4 °F 88% 29.96 in 10.0 mi NNW 3.5 mph - N/A   Scattered Clouds
11:15 PM 68.0 °F - 64.4 °F 88% 29.95 in 10.0 mi NNW 3.5 mph - N/A Rain Rain
11:35 PM 68.0 °F - 64.4 °F 88% 29.95 in 10.0 mi Calm Calm - N/A   Light Drizzle
11:55 PM 68.0 °F - 64.4 °F 88% 29.94 in 10.0 mi Calm Calm - N/A   Mostly Cloudy